Pula, Croatia

10:19 PM CEST on July 21, 2017 (GMT +0200)
Pula

Weather History for LDPL - March, 2013

Change the Weather History Date:

Friday, March 1, 2013

  Actual Average Record
Temperature  
Mean Temperature 42 °F -  
Max Temperature 54 °F - - ()
Min Temperature 30 °F - - ()
Degree Days  
Heating Degree Days 23    
Moisture  
Dew Point 37 °F    
Average Humidity 79    
Maximum Humidity 100    
Minimum Humidity 54    
Precipitation  
Precipitation 0.00 in - - ()
Sea Level Pressure  
Sea Level Pressure 30.11 in    
Wind  
Wind Speed 3 mph ()    
Max Wind Speed 9 mph    
Max Gust Speed -    
Visibility 8.5 miles    
Events      
T = Trace of Precipitation, MM = Missing Value Source: Averaged Metar Reports

Daily Weather History Graph

Daily Weather History Graph

Search for Another Location

Airport or City:

Trip Planner

Search our weather history database for the weather conditions in past years. The results will help you decide how hot, cold, wet, or windy it might be!

Date:

Astronomy

Mar. 01, 2013 Rise Set
Actual Time 6:42 AM CET 5:51 PM CET
Civil Twilight 6:12 AM CET 6:21 PM CET
Nautical Twilight 5:38 AM CET 6:55 PM CET
Astronomical Twilight 5:04 AM CET 7:29 PM CET
Moon 10:19 PM CET (3/1) 8:05 AM CET (3/1)
Length of Visible Light 12h 08m
Length of Day
11h 09m
Waning Gibbous, 85% of the Moon is Illuminated
Mar 1
Waning Gibbous
Mar 4
Last Quarter
Mar 11
New
Mar 19
First Quarter
Mar 27
Full

Hourly Weather History & Observations

Time (CET) Temp. Windchill Dew Point Humidity Pressure Visibility Wind Dir Wind Speed Gust Speed Precip Events Conditions
12:00 AM 35.6 °F - 33.8 °F 93% 30.18 in - Variable 2.3 mph - N/A   Clear
12:30 AM 35.6 °F - 33.8 °F 93% 30.18 in - Variable 2.3 mph - N/A   Clear
1:00 AM 35 °F - 33 °F 87% 30.21 in 12 mi ENE 2.2 mph - -  
1:00 AM 35.6 °F - 32.0 °F 87% 30.18 in - Variable 2.3 mph - N/A   Clear
1:30 AM 35.6 °F 31.7 °F 33.8 °F 93% 30.18 in - NE 4.6 mph - N/A   Clear
2:00 AM 32.0 °F - 30.2 °F 93% 30.15 in - Variable 2.3 mph - N/A   Clear
2:30 AM 33.8 °F - 32.0 °F 93% 30.15 in - Calm Calm - N/A   Clear
3:00 AM 33.8 °F 29.6 °F 32.0 °F 93% 30.15 in - SW 4.6 mph - N/A   Clear
3:30 AM 32.0 °F - 30.2 °F 93% 30.15 in - Variable 1.2 mph - N/A   Clear
4:00 AM 31 °F - 29 °F 92% 30.18 in 12 mi Calm Calm - -  
4:00 AM 32.0 °F - 30.2 °F 93% 30.15 in - Calm Calm - N/A   Clear
4:30 AM 32.0 °F - 32.0 °F 100% 30.15 in - Variable 2.3 mph - N/A   Clear
5:00 AM 36 °F - 30 °F 70% 30.17 in 12 mi NNE 2.2 mph - -  
5:00 AM 35.6 °F - 33.8 °F 93% 30.15 in - Variable 2.3 mph - N/A   Clear
5:30 AM 37.4 °F 33.8 °F 33.8 °F 87% 30.12 in - NNE 4.6 mph - N/A   Clear
6:00 AM 35 °F - 32 °F 86% 30.15 in 12 mi NNE 4.5 mph - -  
6:00 AM 33.8 °F 29.6 °F 32.0 °F 93% 30.12 in - NNE 4.6 mph - N/A   Clear
6:30 AM 35.6 °F 31.7 °F 33.8 °F 93% 30.12 in - North 4.6 mph - N/A   Clear
7:00 AM 36 °F - 34 °F 91% 30.15 in 12 mi North 4.5 mph - -  
7:00 AM 35.6 °F 31.7 °F 33.8 °F 93% 30.12 in - North 4.6 mph - N/A   Clear
7:30 AM 35.6 °F - 33.8 °F 93% 30.12 in - Calm Calm - N/A   Clear
8:00 AM 37.4 °F - 35.6 °F 93% 30.12 in - Variable 2.3 mph - N/A   Clear
8:30 AM 46.4 °F - 42.8 °F 87% 30.15 in - Variable 1.2 mph - N/A   Clear
9:00 AM 48.2 °F - 44.6 °F 87% 30.15 in - Variable 1.2 mph - N/A   Clear
9:30 AM 48.2 °F - 44.6 °F 87% 30.15 in - Variable 2.3 mph - N/A   Clear
10:00 AM 50 °F - 41 °F 63% 30.16 in 12 mi WSW 4.5 mph - -   Scattered Clouds
10:00 AM 50.0 °F - 41.0 °F 71% 30.15 in 6.2 mi Variable 4.6 mph - N/A   Partly Cloudy
10:30 AM 51.8 °F - 39.2 °F 62% 30.15 in 6.2 mi West 4.6 mph - N/A   Partly Cloudy
11:00 AM 53.6 °F - 41.0 °F 62% 30.12 in 6.2 mi Variable 4.6 mph - N/A   Partly Cloudy
11:30 AM 53.6 °F - 41.0 °F 62% 30.12 in 6.2 mi Variable 4.6 mph - N/A   Scattered Clouds
12:00 PM 51.8 °F - 41.0 °F 67% 30.12 in 6.2 mi West 6.9 mph - N/A   Scattered Clouds
12:30 PM 53.6 °F - 41.0 °F 62% 30.12 in 6.2 mi WSW 8.1 mph - N/A   Scattered Clouds
1:00 PM 52 °F - 40 °F 54% 30.12 in 12 mi WSW 8.9 mph - -   Scattered Clouds
1:00 PM 51.8 °F - 41.0 °F 67% 30.09 in 6.2 mi WSW 8.1 mph - N/A   Partly Cloudy
1:30 PM 53.6 °F - 41.0 °F 62% 30.09 in 6.2 mi West 8.1 mph - N/A   Partly Cloudy
2:00 PM 51.8 °F - 39.2 °F 62% 30.09 in 6.2 mi WSW 6.9 mph - N/A   Partly Cloudy
2:30 PM 51.8 °F - 39.2 °F 62% 30.06 in 6.2 mi WSW 8.1 mph - N/A   Partly Cloudy
3:00 PM 51.8 °F - 37.4 °F 58% 30.06 in - WSW 6.9 mph - N/A   Clear
3:30 PM 51.8 °F - 39.2 °F 62% 30.06 in - WSW 6.9 mph - N/A   Clear
4:00 PM 51 °F - 39 °F 54% 30.08 in 9 mi West 6.7 mph - -   Clear
4:00 PM 51.8 °F - 39.2 °F 62% 30.06 in - West 6.9 mph - N/A   Clear
4:30 PM 50.0 °F - 39.2 °F 66% 30.06 in - West 5.8 mph - N/A   Clear
5:00 PM 48.2 °F - 39.2 °F 71% 30.06 in - West 5.8 mph - N/A   Clear
5:30 PM 46.4 °F 43.5 °F 39.2 °F 76% 30.06 in - WNW 5.8 mph - N/A   Clear
6:00 PM 44.6 °F 42.2 °F 39.2 °F 81% 30.06 in - WNW 4.6 mph - N/A   Clear
6:30 PM 42.8 °F 40.1 °F 37.4 °F 81% 30.06 in - North 4.6 mph - N/A   Clear
7:00 PM 42 °F - 37 °F 77% 30.08 in 6 mi North 4.5 mph - -  
7:00 PM 42.8 °F 40.1 °F 37.4 °F 81% 30.06 in - North 4.6 mph - N/A   Clear
7:30 PM 42.8 °F 39.3 °F 37.4 °F 81% 30.06 in - NNE 5.8 mph - N/A   Clear
8:00 PM 39.2 °F - 33.8 °F 81% 30.06 in - Variable 2.3 mph - N/A   Clear
8:30 PM 41.0 °F 37.1 °F 37.4 °F 87% 30.04 in - NNE 5.8 mph - N/A   Clear
9:00 PM 41.0 °F 37.1 °F 37.4 °F 87% 30.06 in - NNE 5.8 mph - N/A   Clear
9:30 PM 41.0 °F 37.1 °F 35.6 °F 81% 30.06 in - NNE 5.8 mph - N/A   Clear
10:00 PM 42 °F - 36 °F 70% 30.06 in 9 mi NNE 6.7 mph - -  
10:00 PM 42.8 °F 39.3 °F 35.6 °F 76% 30.04 in - NNE 5.8 mph - N/A   Clear
10:30 PM 41.0 °F 38.0 °F 35.6 °F 81% 30.04 in - NNE 4.6 mph - N/A   Clear
11:00 PM 42.8 °F 39.3 °F 35.6 °F 76% 30.04 in - NNE 5.8 mph - N/A   Clear
11:30 PM 42.8 °F 38.6 °F 37.4 °F 81% 30.04 in - NNE 6.9 mph - N/A   Clear